CZ-2C DEB, 40289

Orbit data source: Space-Track

CZ-2C DEB, 40289 is space debris in SSO originally from a launch on Mon, 27 Oct 2014 UTC launched from the Jiuquan Satellite Launch Center, China (JSC). Debris objects in space refer to the collection of defunct objects orbiting the Earth. Examples of debris include non-operational satellites, rocket bodies, and fragments generated from explosions, collisions, or faulty payload assembly.

Loading next visibility...
Identifier
40289, 2014-066D
Orbit
SSO
Country
Flag of CNCN / PRC
Related business
Manufacturer
CALT
Mission
Spacecraft
Bus & Motor
Unknown
Mass
1 kg wet, 1 kg dry
Launch date (UTC)
2014-10-27 (11 years ago)
Launch vehicle
Unknown
Launch site
Jiuquan Satellite Launch Center, China (JSC)
Object type
Payload
Rocket body
Debris
Shape & HBR
Cone, 0.1 m
Radar Cross Section
0.025 m², Small (<0.1 m²)

Expand to show TLE details & history
Last TLE update: 5 hours ago

TLE from 5 hours ago
0 CZ-2C DEB
1 40289U 14066D   25342.63308453  .00014838  00000-0  20645-2 0  9991
2 40289  98.4934 245.5383 0072732  35.5732 325.0293 14.76078372590124
Epoch: 2025-12-08T15:11Z
TLE epoch observation values (Epoch: 2025-12-08T15:11:38.503Z)
Latitude
-0.00002°
Longitude
-60.00145°
Altitude
603.004 km
Speed
7.58 km/s
True Right ascension
16h 22m 09s
True Declination
0° 00' 00"
Sunlit
Object was in daylight at epoch
Visualization orbit readout
Latitude
Unknown
Longitude
Unknown
Altitude
Unknown
Speed
Unknown
Apparent Right ascension
Unknown
Apparent Declination
Unknown
Sunlit
N/A
Visualization observer readout
Local Sidereal Time
18:22:53
Azimuth
Unknown
Elevation
Unknown
Doppler factor
Unknown
Orbital elements
Apogee altitude
689.839 km
Perigee altitude
587.768 km
Semi-major axis
7,016.941 km
Eccentricity
0.00727
Inclination
98.4934°
RAAN
245.5383°
Arg. of periapsis
35.5732°
True anomaly
324.54802°
Mean anomaly
325.0293°
Eccentric anomaly
324.78902°
Mean motion
3.69251 °/min
Orbital period
97.49 mins
BSTAR
0.0020645
Loading maneuver chart data...
Computing Atmospheric mass density...
Loading historical data...
Loading historical data...
Loading historical data...
Loading historical data...
Loading historical data...
Loading historical data...
Loading historical data...
Other satellites on launch #66 in the year 2014 (2014-10-27 UTC)

Documentation

Showing up to 5 results
|